Hourly Weather Rusino

Today, 16 June, Wednesday

Time Temperature Precipitation Wind Pressure Humidity
00:00 +17°C° 0 mm 2 mps 742 mmHg 91%
01:00 +17°C° 0 mm 2 mps 742 mmHg 93%
02:00 +16°C° 0 mm 3 mps 742 mmHg 94%
03:00 +17°C° 0 mm 2 mps 742 mmHg 94%
04:00 +17°C° 0 mm 2 mps 742 mmHg 93%
05:00 +17°C° 0 mm 2 mps 742 mmHg 93%
06:00 +19°C° 0 mm 3 mps 742 mmHg 88%
07:00 +20°C° 0 mm 3 mps 743 mmHg 82%
08:00 +21°C° 0 mm 4 mps 743 mmHg 77%
09:00 +22°C° 0 mm 4 mps 743 mmHg 72%
10:00 +23°C° 0 mm 4 mps 743 mmHg 68%
11:00 +25°C° 0 mm 5 mps 743 mmHg 63%
12:00 +25°C° 0 mm 5 mps 744 mmHg 62%
13:00 +25°C° 0 mm 5 mps 744 mmHg 62%
14:00 +25°C° 0 mm 4 mps 744 mmHg 61%
15:00 +25°C° 0.2 mm 4 mps 744 mmHg 66%
16:00 +23°C° 0.2 mm 4 mps 744 mmHg 72%
17:00 +22°C° 0.2 mm 4 mps 745 mmHg 78%
18:00 +21°C° 0.1 mm 3 mps 745 mmHg 81%
19:00 +20°C° 0.1 mm 3 mps 745 mmHg 84%
20:00 +18°C° 0.1 mm 2 mps 746 mmHg 88%
21:00 +17°C° 0 mm 3 mps 746 mmHg 88%
22:00 +16°C° 0 mm 3 mps 746 mmHg 88%
23:00 +14°C° 0 mm 3 mps 747 mmHg 88%

Tomorrow, 17 June, Thursday

Time Temperature Precipitation Wind Pressure Humidity
00:00 +14°C° 0 mm 3 mps 747 mmHg 90%
01:00 +14°C° 0 mm 3 mps 747 mmHg 91%
02:00 +13°C° 0 mm 3 mps 748 mmHg 92%
03:00 +14°C° 0 mm 3 mps 748 mmHg 91%
04:00 +14°C° 0 mm 3 mps 749 mmHg 89%
05:00 +14°C° 0 mm 3 mps 749 mmHg 87%
06:00 +16°C° 0 mm 3 mps 750 mmHg 81%
07:00 +18°C° 0 mm 4 mps 750 mmHg 75%
08:00 +19°C° 0 mm 4 mps 750 mmHg 69%
09:00 +20°C° 0 mm 4 mps 750 mmHg 65%
10:00 +21°C° 0 mm 4 mps 751 mmHg 60%
11:00 +22°C° 0 mm 5 mps 751 mmHg 56%
12:00 +22°C° 0 mm 5 mps 751 mmHg 56%
13:00 +22°C° 0 mm 5 mps 751 mmHg 56%
14:00 +23°C° 0 mm 5 mps 751 mmHg 57%
15:00 +22°C° 0 mm 4 mps 751 mmHg 61%
16:00 +22°C° 0 mm 4 mps 752 mmHg 65%
17:00 +22°C° 0 mm 4 mps 752 mmHg 70%
18:00 +20°C° 0 mm 3 mps 752 mmHg 75%
19:00 +18°C° 0 mm 3 mps 752 mmHg 81%
20:00 +17°C° 0 mm 3 mps 752 mmHg 86%
21:00 +16°C° 0 mm 3 mps 753 mmHg 85%
22:00 +14°C° 0 mm 3 mps 753 mmHg 85%
23:00 +13°C° 0 mm 3 mps 753 mmHg 84%

Day after tomorrow, 18 June, Friday

Time Temperature Precipitation Wind Pressure Humidity
00:00 +13°C° 0 mm 3 mps 753 mmHg 83%
01:00 +13°C° 0 mm 3 mps 753 mmHg 83%
02:00 +12°C° 0 mm 3 mps 754 mmHg 82%
03:00 +14°C° 0 mm 2 mps 754 mmHg 83%
04:00 +14°C° 0 mm 2 mps 754 mmHg 83%
05:00 +14°C° 0 mm 2 mps 754 mmHg 83%
06:00 +16°C° 0 mm 3 mps 754 mmHg 78%
07:00 +18°C° 0 mm 3 mps 755 mmHg 73%
08:00 +20°C° 0 mm 3 mps 755 mmHg 68%
09:00 +20°C° 0 mm 4 mps 755 mmHg 65%
10:00 +21°C° 0 mm 4 mps 755 mmHg 62%
11:00 +22°C° 0 mm 4 mps 755 mmHg 59%
12:00 +22°C° 0 mm 4 mps 755 mmHg 58%
13:00 +24°C° 0 mm 3 mps 755 mmHg 58%
14:00 +24°C° 0 mm 3 mps 755 mmHg 57%
15:00 +24°C° 0 mm 3 mps 755 mmHg 61%
16:00 +24°C° 0 mm 3 mps 754 mmHg 65%
17:00 +24°C° 0 mm 2 mps 754 mmHg 69%
18:00 +21°C° 0 mm 2 mps 754 mmHg 74%
19:00 +19°C° 0 mm 2 mps 754 mmHg 79%
20:00 +17°C° 0 mm 2 mps 754 mmHg 84%
21:00 +17°C° 0 mm 2 mps 754 mmHg 86%
22:00 +16°C° 0 mm 2 mps 755 mmHg 87%
23:00 +15°C° 0 mm 2 mps 755 mmHg 89%

19 June, Saturday

Time Temperature Precipitation Wind Pressure Humidity
00:00 +15°C° 0 mm 2 mps 755 mmHg 89%
01:00 +14°C° 0 mm 2 mps 755 mmHg 89%
02:00 +14°C° 0 mm 1 mps 755 mmHg 89%
03:00 +15°C° 0 mm 1 mps 755 mmHg 88%
04:00 +15°C° 0 mm 1 mps 755 mmHg 87%
05:00 +16°C° 0 mm 1 mps 756 mmHg 87%
06:00 +17°C° 0 mm 2 mps 756 mmHg 81%
07:00 +19°C° 0 mm 2 mps 756 mmHg 75%
08:00 +21°C° 0 mm 2 mps 756 mmHg 70%
09:00 +21°C° 0 mm 2 mps 756 mmHg 67%
10:00 +22°C° 0 mm 3 mps 755 mmHg 63%
11:00 +24°C° 0 mm 3 mps 755 mmHg 60%
12:00 +25°C° 0 mm 3 mps 755 mmHg 59%
13:00 +25°C° 0 mm 3 mps 755 mmHg 58%
14:00 +25°C° 0 mm 3 mps 754 mmHg 57%
15:00 +25°C° 0 mm 2 mps 754 mmHg 61%
16:00 +25°C° 0 mm 2 mps 754 mmHg 64%
17:00 +25°C° 0 mm 2 mps 754 mmHg 68%
18:00 +23°C° 0 mm 2 mps 754 mmHg 73%
19:00 +20°C° 0 mm 2 mps 754 mmHg 79%
20:00 +19°C° 0 mm 2 mps 754 mmHg 84%
21:00 +18°C° 0 mm 2 mps 754 mmHg 85%
22:00 +17°C° 0 mm 2 mps 754 mmHg 87%
23:00 +16°C° 0 mm 2 mps 754 mmHg 88%

20 June, Sunday

Time Temperature Precipitation Wind Pressure Humidity
00:00 +16°C° 0 mm 1 mps 754 mmHg 88%
01:00 +15°C° 0 mm 1 mps 754 mmHg 88%
02:00 +15°C° 0 mm 1 mps 754 mmHg 89%
03:00 +16°C° 0 mm 1 mps 754 mmHg 88%
04:00 +16°C° 0 mm 1 mps 754 mmHg 87%
05:00 +18°C° 0 mm 1 mps 754 mmHg 86%
06:00 +19°C° 0 mm 1 mps 754 mmHg 81%
07:00 +20°C° 0 mm 2 mps 754 mmHg 76%
08:00 +21°C° 0 mm 2 mps 754 mmHg 71%
09:00 +23°C° 0 mm 2 mps 754 mmHg 68%
10:00 +24°C° 0 mm 2 mps 754 mmHg 64%
11:00 +25°C° 0 mm 3 mps 753 mmHg 60%
12:00 +26°C° 0 mm 3 mps 753 mmHg 59%
13:00 +26°C° 0 mm 2 mps 753 mmHg 58%
14:00 +26°C° 0 mm 2 mps 753 mmHg 58%
15:00 +26°C° 0 mm 2 mps 752 mmHg 61%
16:00 +26°C° 0 mm 2 mps 752 mmHg 65%
17:00 +26°C° 0 mm 2 mps 752 mmHg 69%
18:00 +24°C° 0 mm 2 mps 752 mmHg 74%
19:00 +23°C° 0 mm 2 mps 752 mmHg 79%
20:00 +20°C° 0 mm 2 mps 752 mmHg 85%
21:00 +20°C° 0 mm 1 mps 752 mmHg 86%
22:00 +20°C° 0 mm 1 mps 752 mmHg 87%
23:00 +19°C° 0 mm 1 mps 752 mmHg 88%

21 June, Monday

Time Temperature Precipitation Wind Pressure Humidity
00:00 +19°C° 0 mm 1 mps 752 mmHg 88%
01:00 +18°C° 0 mm 1 mps 752 mmHg 89%
02:00 +18°C° 0 mm 1 mps 752 mmHg 89%
03:00 +19°C° 0 mm 1 mps 751 mmHg 89%
04:00 +19°C° 0 mm 1 mps 751 mmHg 89%
05:00 +20°C° 0 mm 1 mps 751 mmHg 88%
06:00 +20°C° 0 mm 2 mps 751 mmHg 84%
07:00 +23°C° 0 mm 2 mps 751 mmHg 79%
08:00 +24°C° 0 mm 2 mps 751 mmHg 75%
09:00 +25°C° 0 mm 3 mps 751 mmHg 71%
10:00 +26°C° 0 mm 3 mps 751 mmHg 67%
11:00 +27°C° 0 mm 3 mps 751 mmHg 64%
12:00 +28°C° 0 mm 3 mps 751 mmHg 62%
13:00 +28°C° 0 mm 2 mps 751 mmHg 61%
14:00 +28°C° 0 mm 2 mps 750 mmHg 60%
15:00 +28°C° 0 mm 2 mps 750 mmHg 62%
16:00 +28°C° 0 mm 2 mps 750 mmHg 65%
17:00 +28°C° 0 mm 1 mps 750 mmHg 68%
18:00 +27°C° 0 mm 2 mps 750 mmHg 73%
19:00 +25°C° 0 mm 2 mps 750 mmHg 78%
20:00 +23°C° 0 mm 2 mps 750 mmHg 83%
21:00 +23°C° 0 mm 2 mps 750 mmHg 84%
22:00 +21°C° 0 mm 2 mps 750 mmHg 85%
23:00 +20°C° 0 mm 2 mps 749 mmHg 87%
Show more